This is the latest recevied weather packets stored in our database for station/object F1AGU-13. If no packets are shown the sender has not sent any weather packets the latest 10 day(s).
| Time | Temp. | Humidity | Pressure | Rain* | Wind** | Luminosity | Snow |
|---|---|---|---|---|---|---|---|
| 1787568015 | 22.78° C | 67% | 1018.7 hPa | 0 mm | - | - | - |
| 1787567415 | 22.22° C | 65% | 1018.8 hPa | 0 mm | - | - | - |
| 1787566815 | 22.78° C | 67% | 1018.9 hPa | 0 mm | - | - | - |
| 1787566217 | 22.22° C | 66% | 1019 hPa | 0 mm | - | - | - |
| 1787565617 | 21.67° C | 69% | 1019.1 hPa | 0 mm | - | - | - |
| 1787565016 | 21.11° C | 69% | 1019.3 hPa | 0 mm | - | - | - |
| 1787564417 | 20.56° C | 71% | 1019.2 hPa | 0 mm | - | - | - |
| 1787563863 | 20.56° C | 69% | 1019.3 hPa | 0 mm | - | - | - |
| 1787563217 | 20.56° C | 70% | 1019.3 hPa | 0 mm | - | - | - |
| 1787562620 | 20° C | 68% | 1019.5 hPa | 0 mm | - | - | - |
| 1787562017 | 20° C | 70% | 1019.5 hPa | 0 mm | - | - | - |
| 1787561417 | 20° C | 74% | 1019.5 hPa | 0 mm | - | - | - |
| 1787560817 | 19.44° C | 71% | 1019.5 hPa | 0 mm | - | - | - |
| 1787560217 | 18.89° C | 76% | 1019.5 hPa | 0 mm | - | - | - |
| 1787559617 | 18.33° C | 76% | 1019.4 hPa | 0 mm | - | - | - |
| 1787559045 | 17.78° C | 81% | 1019.4 hPa | 0 mm | - | - | - |
| 1787558417 | 16.67° C | 84% | 1019.2 hPa | 0 mm | - | - | - |
| 1787557817 | 15.56° C | 87% | 1019.1 hPa | 0 mm | - | - | - |
| 1787557239 | 15° C | 86% | 1019.2 hPa | 0 mm | - | - | - |
| 1787556617 | 14.44° C | 88% | 1019.3 hPa | 0 mm | - | - | - |
| 1787556017 | 13.89° C | 88% | 1019.1 hPa | 0 mm | - | - | - |
| 1787555417 | 13.89° C | 87% | 1019.1 hPa | 0 mm | - | - | - |
| 1787554817 | 13.89° C | 88% | 1019.3 hPa | 0 mm | - | - | - |
| 1787554217 | 13.89° C | 87% | 1019.5 hPa | 0 mm | - | - | - |
| 1787553617 | 13.89° C | 87% | 1019.5 hPa | 0 mm | - | - | - |
* Rain latest hour (hover to see other rain measurements)
** Current wind speed in m/s (hover to see current wind gust speed)